{"data":{"norad_id":67600,"epoch":"2026-05-25T03:57:48.845088Z","epoch_age_seconds":57892,"freshness":"FRESH","line1":"1 67600U 26018M   26145.16514867  .00021765  00000+0  67439-3 0  9994","line2":"2 67600  97.2851 210.2865 0000961 109.1818 250.9529 15.33453426 19054","mean_motion":15.33453426,"eccentricity":9.61e-5,"inclination_deg":97.2851,"raan_deg":210.2865,"arg_perigee_deg":109.1818,"mean_anomaly_deg":250.9529,"bstar":0.00067439,"rev_number":1905,"period_min":93.905688662239,"perigee_km":464.86042948955,"apogee_km":466.17578000069,"semimajor_km":6843.6551047451,"source":"CELESTRAK","updated_at":"2026-05-25T13:38:21.621439Z"}}